Location: Zagreb
(45.8000°N, 16.0000°E)
Time: 17:31:45
(UTC+01:00)

Vanguard 2 Rocket - Pass Details

Date: 28 January 2020
Orbit: 553 x 3327 km, 32.9° (Epoch: 24 February)

Event Time Altitude Azimuth Distance (km) Brightness Sun altitude
Exits shadow 05:42:41 11° 218° (SW) 1,993 8.4 -17.5°
Maximum altitude 05:45:54 20° 171° (S) 1,698 8.5 -17.0°
Drops below altitude 10° 05:50:19 10° 125° (SE) 2,748 10.4 -16.2°
Sets 05:54:23 0° 111° (ESE) 4,175 12.0 -15.5°
